Banff, Alberta

2:14 AM MDT on May 24, 2017 (GMT -0600)
Banff

Weather History for CWZG - March, 2013

Change the Weather History Date:

Sunday, March 10, 2013

  Actual Average Record
Temperature  
Mean Temperature 32 °F -  
Max Temperature 39 °F - - ()
Min Temperature 24 °F - - ()
Degree Days  
Heating Degree Days 34    
Moisture  
Dew Point 17 °F    
Average Humidity 56    
Maximum Humidity 76    
Minimum Humidity 38    
Precipitation  
Precipitation 0.00 in - - ()
Sea Level Pressure  
Sea Level Pressure 30.16 in    
Wind  
Wind Speed 7 mph ()    
Max Wind Speed 15 mph    
Max Gust Speed 28 mph    
T = Trace of Precipitation, MM = Missing Value Source: Averaged Metar Reports

Daily Weather History Graph

Daily Weather History Graph

Search for Another Location

Airport or City:

Trip Planner

Search our weather history database for the weather conditions in past years. The results will help you decide how hot, cold, wet, or windy it might be!

Date:

Astronomy

Mar. 10, 2013 Rise Set
Actual Time 8:06 AM MDT 7:39 PM MDT
Civil Twilight 7:33 AM MDT 8:12 PM MDT
Nautical Twilight 6:55 AM MDT 8:50 PM MDT
Astronomical Twilight 6:15 AM MDT 9:30 PM MDT
Moon 7:12 AM MDT (3/10) 6:51 PM MDT (3/10)
Length of Visible Light 12h 38m
Length of Day
11h 32m
Waning Crescent, 1% of the Moon is Illuminated
Mar 10
Waning Crescent
Mar 11
New
Mar 19
First Quarter
Mar 27
Full
Apr 2
Last Quarter

Hourly Weather History & Observations

Time (MDT) Temp. Windchill Dew Point Humidity Pressure Visibility Wind Dir Wind Speed Gust Speed Precip Events Conditions
12:00 AM 31.6 °F 24.4 °F 16.3 °F 53% 30.27 in - WSW 8.1 mph - N/A   Unknown
1:00 AM 28.6 °F 21.5 °F 16.9 °F 62% 30.28 in - SW 6.9 mph - N/A   Unknown
3:00 AM 28.8 °F 20.9 °F 16.7 °F 61% 30.26 in - SW 8.1 mph - N/A   Unknown
4:00 AM 27.3 °F 19.1 °F 16.5 °F 64% 30.26 in - SW 8.1 mph - N/A   Unknown
5:00 AM 26.6 °F 19.1 °F 16.2 °F 65% 30.25 in - SW 6.9 mph - N/A   Unknown
6:00 AM 27.1 °F 18.9 °F 16.5 °F 64% 30.25 in - SW 8.1 mph - N/A   Unknown
7:00 AM 25.0 °F 19.3 °F 15.8 °F 68% 30.27 in - WSW 4.6 mph - N/A   Unknown
8:00 AM 25.2 °F 19.5 °F 16.3 °F 69% 30.28 in - WSW 4.6 mph - N/A   Unknown
9:00 AM 24.4 °F 17.5 °F 16.0 °F 70% 30.25 in - WSW 5.8 mph - N/A   Unknown
10:00 AM 27.3 °F 17.7 °F 16.9 °F 65% 30.23 in - SW 10.4 mph - N/A   Unknown
11:00 AM 30.6 °F 21.8 °F 17.8 °F 59% 30.21 in - SW 10.4 mph - N/A   Unknown
12:00 PM 35.6 °F 28.0 °F 17.4 °F 48% 30.17 in - WSW 10.4 mph 18.4 mph N/A   Unknown
1:00 PM 38.8 °F 32.1 °F 16.3 °F 40% 30.14 in - WSW 10.4 mph 20.7 mph N/A   Unknown
2:00 PM 39.4 °F 32.3 °F 15.6 °F 38% 30.10 in - SW 11.5 mph 25.3 mph N/A   Unknown
3:00 PM 39.4 °F 32.7 °F 15.4 °F 38% 30.07 in - SW 10.4 mph 20.7 mph N/A   Unknown
4:00 PM 39.0 °F 30.6 °F 15.1 °F 38% 30.03 in - SW 15.0 mph 25.3 mph N/A   Unknown
5:00 PM 38.1 °F 29.8 °F 16.5 °F 42% 30.03 in - SW 13.8 mph 27.6 mph N/A   Unknown
6:00 PM 37.4 °F 30.3 °F 14.7 °F 40% 30.03 in - WSW 10.4 mph 19.6 mph N/A   Unknown
7:00 PM 36.3 °F 30.1 °F 14.4 °F 41% 30.04 in - West 8.1 mph 17.3 mph N/A   Unknown
8:00 PM 34.2 °F 28.2 °F 17.4 °F 50% 30.05 in - West 6.9 mph - N/A   Unknown
9:00 PM 31.8 °F 25.4 °F 20.7 °F 63% 30.07 in - WSW 6.9 mph - N/A   Unknown
10:00 PM 31.6 °F 25.1 °F 19.9 °F 62% 30.08 in - NW 6.9 mph - N/A   Unknown
11:00 PM 30.0 °F 25.2 °F 21.9 °F 72% 30.07 in - West 4.6 mph - N/A   Unknown
12:00 AM 29.1 °F 22.1 °F 22.3 °F 76% 30.07 in - WSW 6.9 mph - N/A   Unknown